Pasco, WA
on Thursday, February 14, 2013

Thursday
Previous Day Next Day
Daily Summary
 ActualAverageRecord
Temperature
Mean Temperature °F 38°F  
Max Temperature 54°F 49°F 59°F (1997)
Min Temperature 24°F 28°F 7°F (1995)
Degree Days
Heating Degree Days 26 26  
Month to date heating degree days 363 383  
Since 1 July heating degree days 3274 3534  
Cooling Degree Days 0 0  
Month to date cooling degree days 0 0  
Year to date cooling degree days 0 0  
Moisture
Dew Point 31°F   
Average Humidity 73    
Maximum Humidity 100    
Minimum Humidity 46    
Precipitation
Precipitation 0.00 in in 0.29 in (1981)
Month to date precipitation T  
Year to date precipitation 0.36  
Snow
Snow 0.00 in in in ()
Snow Depth 0.00 in   
Wind
Wind Speed 2 mph   
Max Wind Speed 12 mph   
Max Gust Speed 14 mph   
Visibility 10 miles   
Events     

Key: T is trace of precipitation, MM is missing value
Source: NWS Daily Summary
Time(PST)TemperatureDew PointHumidity Pressure Visibility Wind DirectionWind SpeedGust SpeedPrecipitationEvents Conditions
12:53 AM 32.0°F 28.0°F 85% 30.44 in 10.0 miles Calm Calm - N/A   Clear
1:53 AM 28.9°F 27.0°F 92% 30.46 in 10.0 miles Calm Calm - N/A   Clear
2:53 AM 28.0°F 25.0°F 88% 30.46 in 10.0 miles Calm Calm - N/A   Clear
3:53 AM 27.0°F 24.1°F 89% 30.47 in 10.0 miles NNE 3.5 mph - N/A   Clear
4:53 AM 27.0°F 25.0°F 92% 30.48 in 10.0 miles Calm Calm - N/A   Clear
5:53 AM 28.0°F 26.1°F 92% 30.48 in 10.0 miles Calm Calm - N/A   Clear
6:53 AM 30.0°F 28.0°F 92% 30.48 in 10.0 miles Calm Calm - N/A   Partly Cloudy
7:53 AM 30.9°F 30.0°F 96% 30.50 in 10.0 miles NNW 3.5 mph - N/A   Overcast
8:53 AM 39.9°F 36.0°F 86% 30.51 in 10.0 miles East 3.5 mph - N/A   Overcast
9:53 AM 44.1°F 35.1°F 71% 30.51 in 10.0 miles Calm Calm - N/A   Overcast
10:53 AM 46.9°F 35.1°F 63% 30.51 in 10.0 miles South 6.9 mph - N/A   Overcast
11:53 AM 50.0°F 34.0°F 54% 30.51 in 10.0 miles SSW 8.1 mph - N/A   Overcast
12:53 PM 52.0°F 34.0°F 50% 30.49 in 10.0 miles West 4.6 mph - N/A   Scattered Clouds
1:53 PM 53.1°F 35.1°F 50% 30.48 in 10.0 miles WSW 5.8 mph - N/A   Clear
2:53 PM 54.0°F 34.0°F 47% 30.48 in 10.0 miles SW 4.6 mph - N/A   Clear
3:53 PM 53.1°F 35.1°F 50% 30.48 in 10.0 miles West 3.5 mph - N/A   Clear
4:53 PM 52.0°F 35.1°F 53% 30.49 in 10.0 miles Calm Calm - N/A   Clear
5:53 PM 46.9°F 35.1°F 63% 30.48 in 10.0 miles South 4.6 mph - N/A   Clear
6:53 PM 43.0°F 34.0°F 71% 30.49 in 10.0 miles Calm Calm - N/A   Clear
7:53 PM 34.0°F 30.9°F 89% 30.50 in 10.0 miles Calm Calm - N/A   Clear
8:53 PM 30.9°F 28.9°F 92% 30.51 in 10.0 miles North 3.5 mph - N/A   Clear
9:53 PM 32.0°F 30.0°F 92% 30.54 in 10.0 miles Calm Calm - N/A   Scattered Clouds
10:53 PM 34.0°F 30.9°F 89% 30.54 in 10.0 miles Calm Calm - N/A   Overcast
11:53 PM 30.9°F 28.9°F 92% 30.56 in 10.0 miles NNE 4.6 mph - N/A   Clear
Moon Phase
Feb. 14 Feb. 17 Feb. 25 Mar. 04 Mar. 11
Sunrise:07:00 AM (PST) Moon Rise:08:45 AM (PST)2/14
Sunset:05:21 PM (PST) Moon Set:10:50 PM (PST)2/14

Copyright © 2014 The Weather Underground, Inc.